Location: Del Amo
(33.8464°N, 118.2104°W)
Time: 08:38:19
(UTC+00:00)

Vanguard 2 - Visible Passes

Search period start: 19 September 2024 00:00
Search period end: 29 September 2024 00:00
Orbit: 552 x 2911 km, 32.9° (Epoch: 18 September)

Date Brightness Start Highest point End Pass type
(mag) Time Alt. Az. Time Alt. Az. Time Alt. Az.
19 Sep 7.4 11:43:15 67° WSW 11:43:57 83° S 11:51:07 10° E visible
20 Sep 7.6 11:56:33 51° W 11:57:54 81° S 12:05:11 10° E visible
21 Sep 10.4 10:08:45 11° E 10:08:45 11° E 10:08:52 10° E visible
21 Sep 7.7 12:09:51 38° W 12:11:51 76° S 12:19:13 10° ESE visible
22 Sep 10.1 10:22:04 14° E 10:22:04 14° E 10:22:53 10° E visible
22 Sep 7.8 12:23:11 29° W 12:25:47 67° SSW 12:33:12 10° ESE visible
23 Sep 9.8 10:35:25 18° E 10:35:25 18° E 10:36:53 10° E visible
23 Sep 8.0 12:36:31 22° W 12:39:43 55° SSW 12:47:03 10° ESE visible
24 Sep 9.5 10:48:47 22° E 10:48:47 22° E 10:50:53 10° E visible
24 Sep 8.3 12:49:54 16° W 12:53:38 44° SSW 13:00:45 10° SE visible
25 Sep 9.1 11:02:11 27° ESE 11:02:11 27° ESE 11:04:51 10° ESE visible
25 Sep 8.7 13:03:18 12° W 13:07:33 34° SSW 13:14:15 10° SE visible
26 Sep 8.8 11:15:36 31° SE 11:15:36 31° SE 11:18:44 10° ESE visible
26 Sep 9.2 13:17:16 10° WSW 13:21:31 25° SSW 13:27:26 10° SSE visible
27 Sep 8.6 11:29:03 32° SE 11:29:03 32° SE 11:32:30 10° ESE visible
28 Sep 8.6 11:42:31 30° SSE 11:42:31 30° SSE 11:46:07 10° SE visible
